Temperature
19 20 20 21 21 20 18 18 17 18 17 18 17 16 18 19 19 19 19 19 18 17 17 16 15 14 13 12 12 11 11 10 10 10 10 9 9 9 9 9 8 8 8 8
21 22 21 21 22 21 21 20 18 19 18 17 18 18 18 18 19 19 19 19 18 17 16 15 14 13 13 12 11 11 11 10 10 10 10 9 9 9 9 9 8 8 8 8
19 20 21 21 22 22 22 20 19 19 19 18 17 16 19 20 20 20 20 19 18 17 16 15 14 13 13 12 11 11 10 10 10 9 9 9 9 9 9 9 8 8 8 8
17 20 21 20 20 21 21 21 19 19 18 17 18 20 21 21 21 20 19 19 18 17 16 15 14 13 12 12 11 11 10 10 10 9 9 9 9 9 9 8 8 8 8 8
16 18 19 20 21 21 21 21 19 18 18 17 17 18 19 21 20 20 19 18 17 16 15 15 14 13 12 12 11 10 10 10 9 9 9 9 9 9 8 8 8 8 8 8
15 19 19 20 21 21 21 20 19 18 17 16 16 16 18 22 20 20 19 18 17 16 15 15 14 13 12 12 11 11 10 10 9 9 9 9 9 9 8 8 8 8 8 8
16 17 18 19 20 21 21 19 22 21 20 18 17 19 22 22 21 20 19 18 17 16 16 15 14 13 13 12 11 11 10 10 9 9 9 9 8 8 8 8 8 8 8 8
15 17 18 20 20 19 20 23 23 23 23 21 22 22 22 21 21 20 19 18 17 16 16 15 14 13 13 12 11 11 10 10 9 9 9 8 8 8 8 8 8 8 8 8
16 18 20 21 21 23 23 23 24 24 24 23 23 22 22 21 21 20 19 18 17 17 16 15 14 13 13 12 11 11 10 10 9 9 9 8 8 8 8 8 8 8 8 8
15 17 20 22 23 24 24 24 25 24 24 23 23 23 22 22 21 20 20 19 18 17 16 15 14 13 13 12 11 11 10 10 9 9 9 9 8 8 8 8 8 8 8 7
16 16 19 23 24 24 24 24 24 24 24 23 23 22 22 22 21 21 20 19 18 17 16 15 14 14 13 12 11 11 10 10 9 9 9 9 9 8 8 8 8 8 8 7
17 19 17 20 21 22 22 23 24 23 23 23 23 22 22 22 21 21 20 19 18 17 16 15 14 14 13 12 11 11 11 10 10 9 9 9 8 9 9 8 8 8 8 7
19 19 18 18 19 20 21 22 22 22 22 22 22 22 22 21 21 20 19 18 18 17 16 15 15 14 13 12 12 11 11 10 10 9 9 9 8 8 9 9 9 8 8 8
17 17 16 16 16 17 19 19 20 20 20 20 20 20 20 20 20 19 19 18 18 17 16 15 15 14 13 12 12 11 11 10 10 9 9 8 8 8 8 8 8 9 8 8
14 15 14 14 16 17 17 18 18 18 18 19 19 19 19 19 19 18 18 18 17 16 16 15 15 14 13 12 12 11 11 10 10 9 9 8 8 8 8 8 8 8 8 8
13 14 14 15 15 15 16 16 16 16 17 17 18 18 18 18 18 17 17 17 17 17 16 15 15 14 13 12 12 11 11 10 9 9 9 8 8 8 8 8 8 8 8 8
13 13 13 13 13 14 14 14 14 15 15 16 16 16 17 17 17 17 16 16 16 16 16 15 14 13 13 12 12 11 10 10 9 9 9 8 8 8 8 8 8 8 8 8
12 12 12 12 13 13 13 14 14 14 14 15 15 16 16 16 15 15 15 15 15 15 15 15 14 13 13 12 12 11 10 10 9 9 8 8 8 8 8 8 8 8 8 8
12 12 12 12 12 13 13 13 13 13 13 14 14 14 14 14 14 14 14 14 14 14 15 14 14 13 13 12 11 11 10 10 9 9 8 8 8 8 8 8 8 8 8 8
12 12 12 12 12 12 12 12 12 12 12 12 12 13 13 13 13 13 13 13 13 13 13 13 13 13 12 12 11 10 10 10 9 8 8 8 8 8 8 8 8 8 8 8
11 12 12 12 11 11 11 11 11 11 11 11 11 11 11 11 11 12 12 12 13 13 13 12 12 12 12 11 10 10 10 9 8 8 8 7 7 8 8 8 8 8 8 8
11 11 11 11 11 11 10 10 10 10 10 10 10 10 10 10 11 11 11 11 11 12 12 12 12 11 11 10 10 9 9 8 8 8 7 7 7 7 7 8 8 8 8 8
10 10 10 10 10 10 10 10 10 10 9 9 10 10 10 10 10 10 10 10 10 11 11 11 11 10 10 9 9 9 8 8 7 7 7 7 7 7 7 7 8 8 8 8
9 9 9 9 9 9 9 9 9 9 9 9 9 9 9 9 9 9 9 9 10 10 10 10 9 9 9 9 8 8 7 7 7 7 6 6 7 7 7 7 7 7 8 8
9 9 9 9 9 9 9 9 9 9 9 9 8 8 8 8 8 8 8 8 9 9 9 9 8 8 8 8 7 7 7 6 6 6 6 6 6 6 7 7 7 7 7 8
9 9 9 9 9 8 8 8 8 8 8 8 8 8 8 8 8 8 8 8 8 8 8 8 8 7 7 7 6 6 6 6 6 6 6 6 6 6 6 6 7 7 7 8
9 9 8 8 8 8 8 8 8 8 8 8 8 8 8 7 7 7 7 7 7 7 7 7 7 6 6 6 6 5 5 5 5 5 5 5 5 5 5 6 6 6 7 7
Wind_Speed
7 6 4 5 7 6 8 8 9 9 9 11 10 10 8 6 5 5 6 7 8 7 6 6 6 6 6 7 7 5 5 6 7 7 7 7 8 8 8 8 9 9 10 10
4 3 4 6 7 5 6 5 7 5 9 8 4 4 5 6 7 8 8 9 9 8 7 7 7 7 7 7 7 5 6 7 7 7 7 8 8 8 9 9 9 9 9 10
4 5 4 5 6 4 5 6 8 9 9 3 5 9 10 9 9 10 10 10 9 9 8 8 8 7 7 7 6 5 6 7 7 7 8 8 9 9 10 9 9 10 10 10
2 2 4 9 5 6 5 6 7 7 6 7 9 7 6 8 10 11 10 10 10 9 8 7 6 6 6 6 6 6 7 7 7 7 8 9 9 10 10 9 9 9 10 10
4 3 7 10 5 5 5 6 7 8 6 4 4 3 5 8 10 11 11 10 9 9 8 6 7 7 5 6 6 6 7 7 8 7 9 9 10 10 9 9 9 9 9 10
4 4 6 10 5 4 4 6 7 9 9 8 8 3 8 9 11 11 10 8 8 7 6 7 7 5 5 7 6 8 8 8 7 7 8 10 10 10 9 8 10 10 10 10
5 5 9 9 2 6 3 9 7 11 11 12 12 12 7 6 10 12 11 10 9 7 7 8 6 5 6 7 8 8 7 7 7 8 8 9 9 8 9 9 9 9 10 10
5 3 7 4 7 9 11 6 5 11 12 14 15 11 7 7 10 11 11 10 9 8 8 7 6 6 8 9 9 6 6 7 8 8 8 8 8 9 8 8 9 9 9 10
8 8 8 5 9 9 5 6 8 10 13 16 14 12 11 10 11 11 11 10 9 9 9 7 6 7 9 9 7 6 6 7 8 8 8 8 8 9 8 7 7 7 7 8
5 10 9 9 8 9 8 10 11 10 11 13 15 14 13 12 11 11 11 10 8 9 9 8 8 8 10 8 6 5 7 7 7 8 9 8 7 6 7 7 7 7 7 8
6 10 10 9 7 7 7 8 9 8 9 13 15 14 13 12 12 11 10 8 8 9 10 11 8 8 9 7 6 6 7 7 7 7 8 8 8 7 8 8 8 8 8 8
8 9 5 8 9 9 7 8 8 6 6 7 12 14 12 12 11 10 10 8 8 10 10 10 8 9 8 6 6 6 6 6 6 6 7 7 8 9 9 10 12 13 13 11
7 5 2 6 9 10 6 7 6 3 5 6 7 9 9 8 7 7 8 9 11 11 11 9 8 8 8 6 6 7 7 7 6 6 6 7 7 7 10 10 10 10 11 11
6 2 6 8 8 11 10 9 9 9 8 6 4 3 3 4 3 6 9 11 10 9 9 9 8 9 8 6 7 7 7 7 7 6 6 7 7 7 7 8 9 8 9 11
13 10 6 6 11 14 14 15 16 16 14 12 8 5 3 3 5 7 8 7 7 8 9 8 9 10 7 6 7 7 6 6 6 6 6 6 6 6 7 7 7 8 8 8
8 11 12 15 16 16 17 18 16 15 14 12 11 9 5 3 4 5 5 5 7 10 11 10 10 9 6 7 7 6 6 8 7 6 6 6 6 6 6 7 7 8 8 8
14 15 13 13 13 13 13 12 11 11 12 13 11 8 6 4 4 5 6 6 9 10 9 9 10 7 6 8 8 6 5 6 8 6 5 5 6 6 6 6 7 8 8 8
8 7 6 7 8 9 11 11 11 11 10 10 10 8 7 6 5 7 8 7 7 8 9 9 8 7 8 8 7 6 5 5 4 5 5 5 6 6 6 6 7 8 8 8
8 8 8 8 7 7 8 9 9 9 9 9 9 8 8 7 7 8 8 6 7 11 10 8 10 9 8 9 8 5 5 5 5 5 5 6 6 5 5 5 6 7 7 7
8 7 8 8 9 8 8 8 9 8 8 8 8 8 9 9 9 9 8 7 9 9 7 5 7 8 8 8 8 5 5 5 5 4 4 4 5 5 5 5 6 6 7 7
7 7 8 8 9 9 8 8 8 8 9 8 7 8 9 10 10 8 7 9 10 8 7 8 6 6 7 7 8 5 5 4 4 3 4 4 4 5 5 6 6 6 6 7
6 7 8 8 8 9 8 7 6 7 8 8 8 8 9 10 10 10 8 8 10 11 7 5 5 7 8 8 5 5 4 4 3 3 3 3 4 4 5 6 6 6 6 6
6 6 7 8 7 8 8 7 6 6 7 7 8 9 8 8 7 7 10 9 9 11 8 5 5 7 8 6 5 5 4 3 2 2 2 3 3 4 4 5 5 5 6 6
7 7 8 7 6 6 7 7 8 7 7 7 8 8 7 7 8 7 7 11 12 11 7 5 5 6 7 5 5 4 3 1 1 1 2 2 3 4 4 4 5 5 5 7
8 7 7 7 6 6 7 8 8 8 7 7 8 9 7 5 6 8 9 10 11 10 6 3 4 5 5 4 4 3 2 1 0 1 2 3 3 4 4 4 5 5 5 6
7 7 7 7 7 7 7 6 6 6 6 7 7 8 8 7 8 7 7 9 10 7 5 2 2 4 4 4 4 4 2 2 2 2 3 3 4 4 4 5 6 5 5 6
8 7 6 7 7 7 6 6 7 7 7 7 8 8 8 8 8 8 9 8 6 5 2 0 2 4 4 5 5 4 3 3 2 3 3 3 3 4 4 5 5 5 5 6
Wind_Direction
233 243 250 257 264 208 196 196 193 229 229 246 230 218 216 204 189 189 204 212 218 226 239 251 264 270 270 274 278 278 279 278 275 278 280 282 283 284 285 284 283 279 280 280
282 264 262 261 269 238 212 200 215 245 259 252 229 167 192 198 193 206 217 224 229 233 239 247 252 260 266 270 274 274 273 274 279 283 285 285 285 287 288 288 287 284 280 279
256 305 351 290 252 228 231 212 188 214 242 208 178 196 208 207 204 211 220 224 227 231 234 240 244 246 253 261 272 274 272 276 281 283 286 287 291 292 290 288 287 287 283 279
189 33 251 250 249 217 227 242 212 230 243 208 209 209 220 204 200 213 219 222 227 229 233 239 239 243 251 262 268 272 275 278 282 285 287 291 292 291 288 287 287 286 285 283
140 194 271 293 268 184 186 263 220 216 224 179 105 59 297 225 205 211 213 214 220 221 221 229 238 242 250 263 268 272 273 274 279 282 288 293 293 290 290 290 291 288 285 283
141 170 234 252 260 161 117 280 234 194 193 165 130 171 253 228 204 217 221 218 218 216 213 229 240 232 238 257 265 266 266 269 276 280 284 288 288 288 288 288 289 291 288 283
174 210 255 254 222 131 163 244 229 193 190 172 184 206 224 209 200 209 214 217 211 204 212 227 229 213 236 252 257 259 264 272 279 281 283 283 283 283 288 291 293 292 290 289
152 190 260 238 149 181 219 238 215 200 194 192 212 223 228 221 212 208 211 213 202 203 223 232 219 210 236 250 253 259 263 272 279 284 286 289 286 291 291 290 294 296 296 297
190 218 245 231 216 238 229 235 232 211 208 202 212 223 224 223 220 215 211 208 200 203 223 235 223 211 232 248 249 251 262 272 281 290 290 285 284 290 297 295 293 296 296 295
244 267 266 268 260 259 236 233 241 224 210 196 208 219 220 221 218 216 213 208 199 199 218 235 232 224 232 246 244 243 261 277 286 293 297 297 291 284 286 290 294 297 296 294
256 275 298 298 281 278 276 261 257 242 215 207 211 220 217 218 216 213 211 205 194 201 217 231 232 235 239 239 228 240 259 275 286 288 289 297 298 286 281 275 264 271 282 281
241 249 236 277 309 326 312 291 273 255 245 225 212 223 218 219 215 205 204 197 201 210 220 231 231 238 242 231 218 232 260 275 281 289 293 295 303 309 283 268 276 268 255 257
259 294 300 305 337 346 337 327 323 294 263 259 243 231 223 222 214 199 199 200 209 215 220 228 232 241 243 226 216 227 247 266 278 285 292 297 302 307 312 313 304 293 282 277
333 11 30 8 355 0 11 14 28 26 11 353 327 300 253 237 213 205 212 214 211 213 221 224 231 243 241 218 214 229 244 261 269 276 284 289 293 295 295 300 309 311 304 293
32 51 61 27 27 26 25 30 33 23 13 10 10 5 328 264 241 236 232 216 202 215 226 224 229 243 233 209 215 230 243 257 267 275 280 282 287 292 294 294 294 297 303 305
40 47 43 38 32 26 26 27 25 13 7 6 6 359 340 292 262 258 243 211 207 226 227 222 231 238 215 204 215 231 245 260 272 278 286 290 293 297 301 303 302 301 300 302
50 37 25 23 18 16 17 16 13 4 1 359 352 344 346 347 324 292 268 241 235 242 233 221 231 230 206 205 211 226 241 263 276 281 280 286 293 296 299 301 301 302 300 297
62 52 35 20 8 4 2 1 1 358 351 340 341 346 349 343 317 298 292 282 266 263 252 236 227 212 207 209 210 218 230 250 264 273 282 288 293 294 297 299 303 304 306 308
34 24 14 8 358 352 349 346 342 337 334 339 345 342 329 318 307 302 301 289 267 264 261 239 222 212 210 210 205 211 224 245 261 270 278 290 297 299 302 303 304 305 309 313
17 4 359 354 351 346 337 332 331 333 336 339 343 344 338 329 322 317 310 291 271 265 270 250 224 215 212 205 197 204 220 237 253 268 280 289 297 304 307 307 307 309 314 318
354 347 348 344 336 331 328 327 329 331 331 336 338 330 321 318 321 321 317 310 301 288 278 256 236 219 204 192 189 199 214 229 243 259 276 288 298 306 311 314 315 316 319 321
334 334 333 330 330 326 324 323 323 324 330 333 333 330 330 327 326 323 308 292 299 303 300 274 249 218 196 181 183 190 202 217 235 252 269 285 298 307 314 319 320 320 323 324
317 314 316 317 315 307 313 319 324 323 320 320 320 319 316 310 309 310 314 311 313 309 305 283 245 203 180 172 176 181 189 204 227 254 278 294 303 308 313 318 320 324 330 334
303 303 303 303 308 313 316 311 311 308 302 302 302 301 303 310 312 304 298 304 311 310 306 280 224 183 161 162 162 160 164 182 237 280 302 313 317 319 321 324 327 333 338 339
291 292 295 304 304 292 285 293 303 303 305 305 305 305 303 290 287 301 307 311 314 313 309 275 199 162 149 144 140 132 125 112 15 319 327 334 335 334 335 337 340 342 345 344
283 281 277 271 267 269 274 278 281 287 293 297 300 301 304 305 302 304 308 311 311 307 301 274 170 145 135 127 118 110 94 63 25 4 355 352 350 348 345 345 346 350 348 346
282 278 277 283 282 271 268 268 270 276 277 278 285 291 297 303 305 310 312 312 313 310 307 86 118 114 111 108 103 92 77 57 30 13 6 3 358 352 349 347 349 352 354 351
Height
1509 1505 1505 1505 1502 1503 1509 1511 1518 1511 1508 1497 1492 1492 1493 1495 1498 1500 1502 1503 1505 1505 1505 1505 1504 1502 1501 1499 1497 1495 1493 1490 1488 1485 1482 1479 1476 1473 1469 1466 1463 1461 1458 1456
1506 1501 1502 1502 1497 1496 1498 1501 1504 1502 1500 1488 1488 1490 1492 1494 1496 1497 1499 1501 1502 1502 1502 1501 1500 1499 1497 1495 1493 1491 1489 1486 1483 1481 1477 1474 1471 1467 1464 1461 1458 1455 1453 1451
1514 1506 1502 1507 1494 1492 1492 1491 1495 1499 1492 1486 1487 1488 1489 1491 1493 1494 1496 1498 1499 1499 1498 1498 1496 1495 1493 1491 1489 1487 1484 1482 1479 1476 1472 1469 1466 1462 1458 1455 1452 1450 1448 1446
1516 1510 1516 1503 1486 1486 1488 1486 1487 1486 1484 1484 1483 1484 1487 1488 1490 1491 1493 1494 1495 1495 1494 1494 1492 1491 1489 1487 1485 1483 1480 1478 1475 1471 1468 1464 1461 1457 1454 1451 1448 1445 1443 1441
1521 1519 1511 1495 1484 1484 1487 1486 1481 1482 1481 1482 1483 1485 1485 1485 1486 1488 1489 1490 1491 1491 1490 1490 1488 1487 1485 1483 1481 1479 1476 1473 1471 1467 1463 1460 1456 1453 1450 1447 1444 1441 1438 1435
1518 1516 1516 1495 1479 1479 1484 1489 1476 1477 1478 1480 1483 1490 1484 1480 1482 1483 1485 1486 1486 1487 1486 1485 1485 1483 1481 1479 1477 1474 1472 1469 1466 1462 1459 1455 1452 1449 1446 1443 1439 1436 1433 1430
1514 1514 1504 1482 1477 1480 1494 1489 1470 1471 1472 1475 1477 1477 1476 1476 1477 1479 1480 1481 1482 1482 1482 1481 1481 1479 1477 1475 1473 1470 1468 1465 1461 1458 1454 1451 1448 1445 1442 1438 1435 1432 1428 1426
1513 1513 1503 1475 1477 1480 1476 1467 1466 1466 1467 1468 1469 1470 1472 1473 1474 1475 1476 1477 1478 1478 1478 1478 1476 1475 1473 1471 1469 1466 1463 1460 1457 1453 1450 1447 1443 1440 1438 1434 1431 1427 1424 1421
1497 1492 1476 1472 1471 1468 1467 1465 1463 1462 1462 1463 1464 1466 1467 1468 1469 1470 1471 1472 1473 1473 1473 1473 1472 1471 1468 1467 1464 1462 1459 1456 1452 1449 1446 1443 1439 1436 1433 1430 1427 1423 1419 1415
1486 1477 1470 1468 1466 1464 1462 1460 1459 1458 1458 1459 1460 1460 1462 1463 1464 1465 1466 1467 1468 1469 1468 1468 1468 1466 1465 1463 1460 1457 1455 1452 1448 1445 1442 1439 1436 1433 1429 1426 1422 1419 1415 1411
1482 1473 1467 1464 1463 1461 1459 1457 1455 1454 1454 1454 1454 1455 1456 1457 1458 1460 1461 1462 1464 1464 1464 1464 1464 1462 1461 1458 1456 1453 1450 1447 1444 1440 1437 1434 1431 1429 1425 1422 1419 1415 1411 1408
1477 1468 1468 1464 1462 1458 1456 1453 1452 1450 1450 1450 1450 1450 1451 1452 1453 1455 1456 1458 1459 1460 1460 1460 1459 1458 1456 1454 1452 1449 1446 1443 1439 1436 1433 1430 1427 1424 1422 1419 1415 1412 1408 1405
1468 1465 1465 1463 1460 1456 1453 1451 1449 1447 1447 1446 1446 1446 1446 1447 1449 1450 1452 1454 1455 1456 1456 1456 1455 1454 1452 1450 1448 1445 1442 1439 1435 1432 1429 1426 1423 1420 1417 1414 1412 1409 1405 1401
1464 1463 1463 1462 1459 1456 1452 1450 1448 1446 1445 1444 1444 1444 1444 1445 1446 1447 1449 1450 1452 1452 1452 1452 1451 1450 1448 1446 1443 1441 1438 1434 1431 1428 1425 1423 1420 1417 1414 1410 1407 1404 1401 1398
1467 1466 1466 1465 1460 1456 1453 1450 1448 1447 1446 1445 1443 1443 1442 1442 1443 1444 1446 1448 1448 1448 1447 1447 1445 1445 1444 1442 1439 1436 1433 1431 1427 1425 1422 1419 1416 1413 1411 1408 1404 1401 1397 1394
1472 1469 1467 1464 1461 1459 1456 1453 1451 1450 1449 1447 1445 1443 1442 1442 1441 1441 1443 1444 1444 1443 1442 1441 1440 1440 1439 1437 1435 1432 1430 1427 1424 1421 1418 1415 1413 1410 1407 1404 1401 1398 1394 1391
1471 1470 1469 1467 1466 1464 1461 1459 1457 1454 1451 1449 1446 1444 1442 1441 1440 1439 1439 1439 1439 1438 1436 1435 1435 1435 1434 1432 1430 1428 1425 1423 1420 1417 1414 1412 1409 1407 1404 1401 1398 1395 1392 1389
1477 1476 1475 1472 1470 1467 1464 1461 1459 1456 1454 1451 1448 1445 1442 1440 1438 1437 1436 1435 1433 1431 1430 1430 1429 1428 1427 1426 1424 1422 1420 1418 1416 1413 1411 1408 1406 1403 1401 1398 1396 1393 1389 1386
1478 1477 1475 1473 1471 1468 1465 1462 1459 1457 1453 1450 1446 1444 1441 1438 1436 1434 1432 1429 1426 1424 1423 1423 1422 1422 1421 1420 1419 1417 1415 1413 1411 1409 1407 1404 1402 1400 1398 1396 1393 1390 1387 1384
1478 1477 1474 1472 1470 1467 1464 1461 1458 1454 1451 1448 1445 1442 1439 1436 1433 1430 1427 1424 1421 1419 1417 1416 1415 1414 1413 1413 1412 1411 1410 1408 1406 1404 1402 1400 1399 1397 1395 1393 1391 1388 1385 1382
1477 1475 1472 1470 1467 1465 1462 1458 1455 1452 1449 1446 1443 1440 1437 1434 1431 1427 1423 1419 1416 1413 1410 1408 1407 1406 1406 1406 1406 1405 1404 1403 1402 1400 1398 1396 1395 1393 1392 1390 1388 1386 1383 1381
1475 1472 1470 1467 1464 1462 1459 1456 1453 1450 1447 1444 1441 1438 1434 1431 1427 1423 1420 1416 1411 1408 1404 1401 1399 1399 1399 1399 1399 1399 1399 1398 1397 1395 1394 1393 1391 1390 1388 1387 1385 1384 1382 1379
1473 1470 1468 1465 1462 1459 1456 1454 1451 1448 1445 1442 1439 1435 1432 1428 1424 1420 1415 1411 1407 1403 1399 1396 1394 1393 1393 1394 1394 1394 1394 1394 1393 1391 1390 1389 1388 1386 1385 1384 1383 1382 1380 1378
1470 1467 1465 1462 1459 1456 1454 1451 1448 1446 1442 1439 1436 1432 1428 1424 1420 1417 1412 1407 1403 1399 1394 1391 1390 1389 1389 1389 1390 1390 1390 1390 1389 1388 1386 1385 1384 1383 1382 1382 1381 1379 1378 1376
1466 1464 1461 1459 1456 1453 1451 1448 1445 1442 1439 1435 1432 1429 1425 1420 1416 1411 1407 1402 1398 1394 1390 1387 1386 1385 1385 1386 1386 1386 1386 1386 1385 1384 1383 1382 1381 1380 1380 1379 1378 1377 1376 1374
1462 1460 1457 1455 1452 1449 1446 1443 1440 1437 1434 1430 1427 1424 1420 1416 1411 1407 1402 1398 1393 1389 1386 1383 1382 1382 1382 1382 1383 1383 1383 1383 1382 1381 1380 1378 1378 1377 1377 1377 1376 1375 1374 1373
1457 1455 1452 1450 1447 1444 1441 1438 1435 1432 1429 1425 1421 1418 1415 1411 1406 1402 1398 1393 1388 1385 1382 1380 1379 1379 1379 1379 1380 1380 1380 1379 1379 1378 1377 1376 1375 1375 1374 1374 1374 1374 1373 1372